Location: Kosice
(0.0000°N, 21.2500°E)
Time: 05:44:01
(UTC+01:00)

CSL-04 Debris - Pass Details

Date: 24 January 2021
Orbit: 827 x 847 km, 98.9° (Epoch: 04 March)

Event Time Altitude Azimuth Distance (km) Brightness Sun altitude
Rises 19:03:54 0° 165° (SSE) 3,383 7.4 -18.1°
Reaches altitude 10° 19:06:16 10° 163° (SSE) 2,444 6.6 -18.6°
Maximum altitude 19:11:41 78° 77° (ENE) 851 4.0 -19.9°
Drops below altitude 10° 19:17:02 10° 351° (N) 2,423 6.5 -21.2°
Sets 19:19:22 0° 350° (N) 3,352 7.2 -21.7°
